KJ6MC Weather Reports


Display with metric or nautical units.
time (UTC)temp
F
wind
direction
speed
MPH
gust
MPH
rain 1hr
in
rain 24hr
in
rain mn
in
humidity
%
barometer
mb
20180223232953 54 356 3.0 10.0 0.00 0.04 0.00 26 1026.8
20180223231955 53 336 2.0 10.0 0.00 0.04 0.00 27 1026.8
20180223225952 53 337 4.0 10.0 0.00 0.04 0.00 28 1026.7
20180223224955 53 3 3.0 9.0 0.00 0.04 0.00 28 1026.6
20180223223952 53 345 7.0 9.0 0.00 0.04 0.00 26 1026.7
20180223221952 53 10 2.0 10.0 0.00 0.04 0.00 28 1026.7
20180223220951 52 357 2.0 10.0 0.00 0.04 0.00 30 1026.6
20180223213951 52 29 5.0 9.0 0.00 0.04 0.00 32 1027.1
20180223211954 51 38 2.0 10.0 0.00 0.04 0.00 32 1027.2
20180223205950 50 4 2.0 10.0 0.00 0.04 0.00 34 1027.4
20180223203950 50 29 5.0 7.0 0.00 0.04 0.00 39 1027.6
20180223202950 49 19 6.0 10.0 0.00 0.04 0.00 42 1027.7
20180223201950 49 29 6.0 9.0 0.00 0.04 0.00 43 1027.9
20180223195950 48 345 6.0 12.0 0.00 0.04 0.00 42 1028.2
20180223193949 46 19 2.0 10.0 0.00 0.04 0.00 45 1028.5
20180223192949 46 337 2.0 13.0 0.00 0.04 0.00 46 1028.6
20180223190949 45 30 3.0 9.0 0.00 0.04 0.00 50 1028.6
20180223185003 43 18 2.0 10.0 0.00 0.04 0.00 51 1028.7
20180223175948 41 50 3.0 11.0 0.00 0.04 0.00 55 1028.4
20180223174948 41 16 3.0 9.0 0.00 0.04 0.00 56 1028.4
20180223173948 40 14 3.0 8.0 0.00 0.04 0.00 57 1028.4
20180223172948 40 15 3.0 9.0 0.00 0.04 0.00 59 1028.4
20180223170947 39 8 4.0 7.0 0.00 0.04 0.00 63 1028.1
20180223161947 36 2 3.0 7.0 0.00 0.04 0.00 75 1027.5
20180223152946 32 342 0.0 1.0 0.00 0.04 0.00 91 1026.7
20180223150946 30 355 0.0 0.0 0.00 0.04 0.00 93 1026.5
20180223145945 30 355 0.0 2.0 0.00 0.04 0.00 93 1026.3
20180223142945 29 355 0.0 1.0 0.00 0.04 0.00 96 1025.8
20180223141947 28 347 0.0 1.0 0.00 0.04 0.00 95 1025.7
20180223140945 28 29 0.0 0.0 0.00 0.04 0.00 95 1025.6
20180223135945 28 29 0.0 0.0 0.00 0.04 0.00 95 1025.5
20180223133944 29 29 0.0 0.0 0.00 0.04 0.00 95 1025.3
20180223131947 31 342 0.0 0.0 0.00 0.04 0.00 96 1024.9
20180223124944 30 247 0.0 0.0 0.00 0.04 0.00 96 1024.6
20180223121946 30 247 0.0 0.0 0.00 0.04 0.00 96 1024.3
20180223111945 30 247 0.0 0.0 0.00 0.04 0.00 95 1023.8
20180223105944 31 247 0.0 0.0 0.00 0.04 0.00 95 1023.7
20180223103942 31 247 0.0 0.0 0.00 0.04 0.00 95 1023.7
20180223102942 31 247 0.0 0.0 0.00 0.04 0.00 95 1023.6
20180223100941 31 247 0.0 0.0 0.00 0.04 0.00 95 1023.5
20180223093941 32 247 0.0 0.0 0.00 0.04 0.00 94 1023.3
20180223091942 33 302 0.0 0.0 0.00 0.04 0.00 94 1023.3
20180223085940 33 302 0.0 0.0 0.00 0.04 0.00 94 1023.3
20180223084943 34 302 0.0 0.0 0.00 0.04 0.00 94 1023.1
20180223083940 34 302 0.0 0.0 0.00 0.04 0.00 94 1023.1
20180223081940 34 302 0.0 0.0 0.00 0.04 0.00 94 1023.0
20180223075939 34 302 0.0 0.0 0.00 0.04 0.04 94 1022.8
20180223073939 34 302 0.0 0.0 0.00 0.04 0.04 94 1022.6
20180223071939 34 243 0.0 0.0 0.00 0.04 0.04 94 1022.3
20180223065939 34 243 0.0 0.0 0.00 0.04 0.04 93 1022.3
20180223060938 35 243 0.0 0.0 0.00 0.04 0.04 91 1022.1
20180223055938 35 243 0.0 0.0 0.00 0.04 0.04 91 1022.0
20180223053938 37 243 0.0 0.0 0.00 0.04 0.04 92 1021.9
20180223052938 36 256 0.0 0.0 0.00 0.04 0.04 92 1021.8
20180223051937 36 240 0.0 0.0 0.00 0.04 0.04 89 1021.7
20180223050937 37 240 0.0 0.0 0.00 0.04 0.04 90 1021.5
20180223044937 38 240 0.0 0.0 0.00 0.04 0.04 86 1021.4
20180223043937 39 240 0.0 0.0 0.00 0.04 0.04 86 1021.4
20180223042937 39 353 0.0 0.0 0.00 0.04 0.04 84 1021.5
20180223041937 40 353 0.0 0.0 0.00 0.04 0.04 85 1021.5
20180223035936 40 353 0.0 1.0 0.01 0.04 0.04 82 1021.1
20180223034936 41 353 0.0 1.0 0.01 0.04 0.04 81 1021.0
20180223032936 41 353 0.0 2.0 0.01 0.04 0.04 81 1020.9
20180223031936 41 345 0.0 2.0 0.01 0.04 0.04 81 1020.7
20180223025935 42 0 1.0 4.0 0.01 0.04 0.04 79 1020.4
20180223024935 42 18 3.0 4.0 0.01 0.04 0.04 80 1020.2
20180223023935 42 33 2.0 3.0 0.01 0.04 0.04 80 1020.0
20180223022935 43 156 0.0 7.0 0.00 0.03 0.03 80 1019.7
20180223021935 43 25 2.0 7.0 0.00 0.03 0.03 80 1019.9
20180223020935 43 72 0.0 7.0 0.00 0.03 0.03 79 1019.7
20180223012934 45 3 1.0 5.0 0.00 0.03 0.03 78 1018.6
20180223010934 45 25 2.0 5.0 0.00 0.03 0.03 75 1018.3
20180223004933 49 27 2.0 6.0 0.03 0.03 0.03 65 1018.0
20180223002933 52 250 1.0 14.0 0.03 0.03 0.03 50 1017.9
20180223000934 52 199 0.0 4.0 0.03 0.03 0.03 58 1017.6
20180222235933 52 289 0.0 13.0 0.03 0.03 0.03 64 1017.8
20180222234933 54 282 7.0 13.0 0.00 0.00 0.00 52 1018.0